Date,TemperatureHighF,TemperatureAvgF,TemperatureLowF,DewpointHighF,DewpointAvgF,DewpointLowF,HumidityHigh,HumidityAvg,HumidityLow,PressureMaxIn,PressureMinIn,WindSpeedMaxMPH,WindSpeedAvgMPH,GustSpeedMaxMPH,PrecipitationSumIn
2013-8-1,80.9,70.7,60.7,68.0,62.2,58.0,100,77,48,29.97,29.90,14,3,0,0.00
2013-8-2,74.7,63.2,56.7,68.0,59.3,55.0,95,87,70,29.95,29.88,12,2,0,0.00
2013-8-3,81.2,72.2,64.1,70.0,65.3,56.0,100,81,57,30.05,29.89,8,2,0,0.24
2013-8-4,79.1,67.2,55.0,62.0,58.3,54.0,97,75,47,30.14,30.05,6,1,0,0.00
2013-8-5,78.9,67.4,56.8,66.0,61.5,56.0,99,83,56,30.08,29.88,9,2,0,0.00
2013-8-6,80.8,71.9,66.6,73.0,68.4,64.0,97,89,76,29.90,29.83,7,2,0,0.00
2013-8-7,83.5,75.9,69.6,77.0,73.2,69.0,99,91,79,29.86,29.79,12,4,0,0.00
2013-8-8,74.3,71.6,68.9,73.0,71.0,68.0,99,98,95,29.91,29.84,5,2,0,0.79
2013-8-9,81.6,72.1,62.7,71.0,66.3,62.0,98,83,58,29.99,29.89,5,1,0,0.00
2013-8-10,82.8,74.3,66.3,72.0,67.8,65.0,97,81,58,30.06,29.99,6,1,0,0.00
2013-8-11,81.6,70.8,60.7,71.0,65.8,60.0,100,85,62,30.08,30.01,5,1,0,0.00
2013-8-12,82.6,72.5,63.2,72.0,67.9,63.0,98,86,65,30.04,29.83,7,2,0,0.01
2013-8-13,71.7,66.4,57.3,68.0,60.3,51.0,99,82,55,30.08,29.83,15,3,0,0.00
2013-8-14,56.9,52.2,48.3,52.0,50.0,48.0,98,92,80,30.16,30.08,2,0,0,0.00
2013-8-15,72.6,61.2,59.6,59.0,46.1,-99.9,91,70,51,30.10,0.00,4,-35,0,0.00
2013-8-16,75.1,65.8,57.8,62.0,58.8,57.0,97,80,55,30.14,30.09,5,1,0,0.00
2013-8-17,78.2,68.1,58.3,63.0,59.4,56.0,95,75,55,30.18,30.10,7,2,0,0.00
2013-8-18,82.9,70.7,58.8,67.0,62.9,57.0,95,78,56,30.15,30.05,5,1,0,0.00
2013-8-19,83.8,71.9,59.0,68.0,64.4,58.0,99,79,51,30.10,30.01,7,1,0,0.00
2013-8-20,86.1,74.2,62.1,71.0,66.3,61.0,98,78,52,30.10,30.01,9,1,0,0.00
2013-8-21,87.6,75.8,65.0,73.0,68.2,64.0,98,79,53,30.08,29.98,11,2,0,0.00
2013-8-22,76.7,72.5,69.0,71.0,68.8,67.0,96,88,78,30.08,29.96,6,2,0,0.00
2013-8-23,81.5,70.3,62.6,71.0,66.3,62.0,100,88,62,30.11,30.03,6,1,0,0.01
2013-8-24,83.0,71.9,58.7,64.0,59.7,55.0,96,69,38,30.23,30.11,6,1,0,0.00
2013-8-25,87.3,73.6,59.8,66.0,61.6,56.0,90,69,43,30.25,30.15,10,2,0,0.00
2013-8-26,90.0,76.2,63.3,75.0,68.4,60.0,96,78,51,30.18,30.01,13,4,0,0.00
2013-8-27,91.8,80.3,71.9,77.0,73.3,69.0,94,80,59,30.03,29.89,12,5,0,0.00
2013-8-28,91.8,80.5,72.0,78.0,72.6,69.0,95,78,60,29.95,29.85,10,5,0,0.00
2013-8-29,87.9,77.6,70.8,74.0,71.2,68.0,100,82,56,30.01,29.93,6,2,0,0.00
2013-8-30,93.8,78.6,66.5,79.0,71.6,65.0,97,81,53,29.94,29.75,11,3,0,0.37
2013-8-31,89.0,75.9,67.0,75.0,71.0,67.0,98,86,63,29.78,29.67,11,2,0,0.35